Location: Absher
(46.5583°N, 107.9840°W)
Time: 16:30:39
(UTC+00:00)

O/OREOS (USA 219) - Visible Passes

Search period start: 18 April 2024 00:00
Search period end: 28 April 2024 00:00
Orbit: 621 x 646 km, 72.0° (Epoch: 22 May)

Date Brightness Start Highest point End Pass type
(mag) Time Alt. Az. Time Alt. Az. Time Alt. Az.
18 Apr ? 04:01:17 10° WNW 04:03:46 14° NW 04:06:16 10° NNW visible
18 Apr ? 10:47:23 10° N 10:51:32 35° ENE 10:55:39 10° ESE visible
19 Apr ? 02:41:26 10° SW 02:45:48 43° WNW 02:50:11 10° NNE visible
19 Apr ? 09:31:45 10° NNE 09:33:27 12° NE 09:35:09 10° ENE visible
19 Apr ? 11:09:13 10° NNW 11:13:44 71° ENE 11:18:13 10° SSE visible
20 Apr ? 03:04:28 10° WSW 03:08:09 23° NW 03:11:48 10° N visible
20 Apr ? 09:52:35 10° N 09:56:01 21° NE 09:59:25 10° E visible
20 Apr ? 11:31:21 10° NNW 11:35:45 54° WSW 11:40:07 10° S visible
21 Apr ? 03:28:28 10° WNW 03:30:40 13° NW 03:32:52 10° NNW visible
21 Apr ? 10:14:09 10° NNW 10:18:23 38° ENE 10:22:34 10° SE visible
22 Apr ? 08:58:17 10° NNE 09:00:20 13° NE 09:02:23 10° ENE visible
22 Apr ? 10:36:01 10° NNW 10:40:33 79° ENE 10:45:01 10° SSE visible
23 Apr ? 09:19:18 10° N 09:22:53 22° NE 09:26:25 10° ESE visible
23 Apr ? 10:58:12 10° NW 11:02:33 48° WSW 11:06:50 10° S visible
24 Apr ? 02:55:42 10° WNW 02:57:33 12° NW 02:59:25 10° NNW visible
24 Apr ? 09:40:55 10° NNW 09:45:13 42° ENE 09:49:28 10° SE visible
24 Apr ? 11:20:51 10° NW 11:24:22 23° WSW 11:27:51 10° SSW visible
25 Apr ? 08:24:52 10° NNE 08:27:13 14° NE 08:29:33 10° ENE visible
25 Apr ? 10:02:50 10° NNW 10:07:21 87° ENE 10:11:50 10° SSE visible
26 Apr ? 08:46:02 10° N 08:49:44 24° NE 08:53:24 10° ESE visible
26 Apr ? 10:25:04 10° NW 10:29:19 43° WSW 10:33:24 11° S visible
27 Apr ? 09:07:41 10° NNW 09:12:02 46° ENE 09:15:41 14° SE visible
27 Apr ? 10:47:48 10° NW 10:51:07 21° WSW 10:53:01 16° SW visible
